Flag for Nicaragua Weather past 2 weeks in Managua, Nicaragua

Now
82 °F

Passing clouds.


Feels Like: 85 °F
Forecast: 74 / 91 °F
Wind: 16 mph from East

Location: Managua A. C. Sandino

Current Time: Mar 2, 2015 at 10:59:02 PM

Latest Report: Mar 2, 2015 at 10:00 PM


Visibility: N/A

Pressure: 29.92 "Hg

Humidity: 58%

Dew point: 66 °F

Location of ManaguaLocation

Historic Weather in Managua — Graph

°F

Managua temperature yesterday

Maximum temperature yesterday: 93 °F (at 2:00 PM)
Minimum temperature yesterday: 72 °F (at 6:00 AM)
Average temperature yesterday: 85 °F

Past Weeks' High & Low Weather Summary

 TemperatureHumidityPressure
High95 °F (Feb 24, 3:00 PM)88% (Feb 17, 6:00 AM)29.98 "Hg (Feb 17, 6:00 AM)
Low70 °F (Feb 16, 6:00 AM)30% (Feb 28, 4:00 PM)29.74 "Hg (Feb 26, 3:00 PM)
Average83 °F59%29.87 "Hg
* Reported Feb 15 9:00 PM — Mar 2 9:00 PM, Managua, Weather by CustomWeather, © 2015

Note: Actual official high and low records may vary slightly from our data, if they occured in-between our weather recording intervals... More about our weather records

Advertising

Managua weather history for previous 24 hours

 ConditionsComfort  
Time TempWeatherWind HumidityBarometerVisibility
9:00 PM
Mon, Mar 2
82 °FPassing clouds.14 mph55%29.89 "HgN/A
8:00 PM84 °FPassing clouds.14 mph51%29.86 "HgN/A
7:00 PM86 °FPassing clouds.16 mph49%29.83 "HgN/A
6:00 PM88 °FPassing clouds.16 mph46%29.80 "HgN/A
5:00 PM90 °FPassing clouds.14 mph43%29.80 "HgN/A
4:00 PM90 °FScattered clouds.18 mph49%29.80 "HgN/A
3:00 PM90 °FPassing clouds.16 mph46%29.83 "HgN/A
2:00 PM91 °FScattered clouds.21 mph46%29.83 "HgN/A
1:00 PM90 °FScattered clouds.18 mph46%29.86 "HgN/A
12:00 PM86 °FScattered clouds.18 mph55%29.92 "HgN/A
11:00 AM84 °FRain. Partly sunny.16 mph58%29.95 "Hg6 mi
10:00 AM84 °FScattered clouds.14 mph58%29.98 "HgN/A
9:00 AM84 °FPassing clouds.16 mph58%29.98 "HgN/A
8:00 AM82 °FPassing clouds.16 mph58%29.95 "HgN/A
6:00 AM79 °FPassing clouds.12 mph70%29.92 "HgN/A
5:00 AM75 °FPassing clouds.7 mph74%29.89 "HgN/A
4:00 AM75 °FPassing clouds.5 mph74%29.89 "HgN/A
3:00 AM75 °FPassing clouds.5 mph74%29.89 "HgN/A
2:45 AM77 °FWarm.50 mph74%29.92 "HgN/A
1:00 AM79 °FPassing clouds.12 mph70%29.92 "HgN/A
12:00 AM79 °FPassing clouds.9 mph65%29.95 "HgN/A
11:00 PM
Sun, Mar 1
81 °FPassing clouds.12 mph62%29.98 "HgN/A
10:00 PM82 °FPassing clouds.12 mph58%29.98 "HgN/A
Weather by CustomWeather, © 2015

See weather overviewHow to use our weather pages